Regional Weather Roundup
Issued by NWS

Home | Current Version | Previous Version | Graphics & Text | Print | Product List | Glossary Off
Versions: 1 2 3 4 5 6 7 8 9 10 11 12 13 14 15 16 17 18 19 20 21 22 23 24 25 26 27 28 29 30 31 32 33 34 35 36 37 38 39 40 41 42 43 44 45 46 47 48 49 50

000
ASUS43 KDMX 220607
RWRIA

WEATHER ROUNDUP FOR IOWA
NATIONAL WEATHER SERVICE DES MOINES IA
100 AM CDT FRI MAY 22 2015

NOTE: "FAIR" INDICATES FEW OR NO CLOUDS BELOW 12,000 FEET WITH NO
SIGNIFICANT WEATHER AND/OR OBSTRUCTIONS TO VISIBILITY.

* - THESE STATIONS ARE NOT NWS STATIONS...THUS NOT UNDER NWS
QUALITY CONTROL.  THEY ALSO DO NOT REPORT WEATHER SUCH
AS PRECIPITATION OR FOG.

IAZ001>003-012>014-020>022-031>034-043>046-220700-
   NORTHWEST IOWA

CITY           SKY/WX    TMP DP  RH WIND       PRES   REMARKS
CARROLL *      PTCLDY    55  41  58 W12       30.15S
CHEROKEE *     CLEAR     46  43  86 CALM      30.15S
DENISON *      CLEAR     55  41  58 CALM      30.16R
LE MARS *      CLEAR     50  43  76 CALM      30.17R
ORANGE CITY *  CLEAR     52  39  62 W6        30.16S
SHELDON *      CLEAR     50  39  66 CALM      30.14S
SIOUX CITY     CLEAR     52  37  56 NW5       30.17R
6HR MIN TEMP:  51; 6HR MAX TEMP:  75;

SPENCER          N/A     49  38  65 NW3       30.15R
6HR MIN TEMP:  47; 6HR MAX TEMP:  73;

STORM LAKE *   CLEAR     54  41  62 W10       30.16S
$$

IAZ055>058-069>071-079>083-090>094-220700-
   SOUTHWEST IOWA

CITY           SKY/WX    TMP DP  RH WIND       PRES   REMARKS
ATLANTIC *     CLEAR     54  43  66 SW8       30.18R
AUDUBON *      CLEAR     54  43  66 CALM      30.18R
CLARINDA *     CLEAR     54  43  66 S5        30.21R
COUNCIL BLFS * CLEAR     54  43  66 W7        30.19S
CRESTON *      CLEAR     54  45  71 W9        30.18R
HARLAN  *      CLEAR     55  43  62 W12       30.21R
LAMONI         CLEAR     58  43  57 W12       30.17R
6HR MIN TEMP:  58; 6HR MAX TEMP:  71;

RED OAK *      CLEAR     54  45  71 SW5       30.19S
SHENANDOAH *   CLEAR     52  45  76 SW7       30.20S
$$

IAZ047>049-059>061-072>074-084-220700-
   CENTRAL IOWA

CITY           SKY/WX    TMP DP  RH WIND       PRES   REMARKS
AMES           CLEAR     53  40  61 CALM      30.12R
6HR MIN TEMP:  51; 6HR MAX TEMP:  74;

ANKENY *       CLEAR     52  45  76 W6        30.13R
CHARITON *       N/A     55  45  67 W9        30.15R
DES MOINES     CLEAR     56  42  59 W5        30.14R
6HR MIN TEMP:  56; 6HR MAX TEMP:  74;

GRINNELL*      CLEAR     52  39  62 W5        30.11S
KNOXVILLE *    CLEAR     55  45  67 W9        30.12R
MARSHALLTOWN   CLEAR     47  35  63 W6        30.10R
6HR MIN TEMP:  47; 6HR MAX TEMP:  72;

PELLA *        CLEAR     56  49  77 W8        30.13S
PERRY *          N/A     52  43  71 W10       30.15R
$$

IAZ004>006-015-016-023>025-035-036-220700-
   NORTH CENTRAL IOWA

CITY           SKY/WX    TMP DP  RH WIND       PRES   REMARKS
ALGONA *       CLEAR     55  32  41 N6        30.13S
CLARION *      CLEAR     46  37  71 CALM      30.12R
ESTHERVILLE    CLEAR     47  32  56 NW8       30.13S
6HR MIN TEMP:  47; 6HR MAX TEMP:  71;

FORT DODGE *   CLEAR     45  39  81 CALM      30.14R
MASON CITY     CLEAR     47  37  68 NW8       30.12S
6HR MIN TEMP:  47; 6HR MAX TEMP:  71;

FOREST CITY *  CLEAR     45  39  81 CALM      30.12S
IOWA FALLS *     N/A     48  36  61 NW3       30.12R
$$

IAZ007>011-017>019-026>030-037>042-050>054-066-220700-
   NORTHEAST IOWA

CITY           SKY/WX    TMP DP  RH WIND       PRES   REMARKS
CEDAR RAPIDS   CLEAR     51  35  54 W8        30.08R
6HR MIN TEMP:  51; 6HR MAX TEMP:  72;

CHARLES CITY * CLEAR     50  36  57 NW5       30.10S
CLINTON *      CLEAR     48  39  71 W6        30.08R
DECORAH *      CLEAR     54  37  54 CALM      30.08R
DUBUQUE        CLEAR     51  38  60 NW10      30.06R
6HR MIN TEMP:  48; 6HR MAX TEMP:  69;

MONTICELLO *   CLEAR     48  45  87 CALM      30.07R
OELWEIN *      CLEAR     52  37  58 NW6       30.09S
WATERLOO       CLEAR     50  39  66 NW3       30.09R
6HR MIN TEMP:  47; 6HR MAX TEMP:  72;

$$

IAZ064-065-067-068-078-220700-
   EAST CENTRAL IOWA

CITY           SKY/WX    TMP DP  RH WIND       PRES   REMARKS
DAVENPORT      CLEAR     50  42  74 W5        30.07R
6HR MIN TEMP:  50; 6HR MAX TEMP:  71;

IOWA CITY      CLEAR     53  38  56 CALM      30.10R
6HR MIN TEMP:  49; 6HR MAX TEMP:  72;

MT. PLEASANT * CLEAR     56  46  69 W9        30.10S
MUSCATINE *    CLEAR     57  43  58 W8        30.08R
QUAD CITIES    CLEAR     54  44  69 W3        30.06R
6HR MIN TEMP:  53; 6HR MAX TEMP:  70;

$$

IAZ062-063-075>077-085>089-095>099-220700-
   SOUTHEAST IOWA

CITY           SKY/WX    TMP DP  RH WIND       PRES   REMARKS
BURLINGTON     CLEAR     57  47  69 W8        30.09S
6HR MIN TEMP:  57; 6HR MAX TEMP:  69;

FAIRFIELD *    CLEAR     55  45  67 W9        30.11S
FORT MADISON * CLEAR     57  46  67 W5        30.12R
KEOKUK *       CLEAR     57  48  72 SW10      30.11S
OSKALOOSA *      N/A     53  45  73 W9        30.12S
CENTERVILLE *  CLEAR     54  54 100 SW8       30.16R
OTTUMWA        CLEAR     54  45  71 W9        30.11S
6HR MIN TEMP:  53; 6HR MAX TEMP:  71;

WASHINGTON *   CLEAR     55  45  67 W8        30.11R
$$

ABBREVIATIONS USED IN REMARKS
   TC - TEMPERATURES IN CELSIUS
  WCI - WIND CHILL INDEX
   HX - HEAT INDEX
  VSB - VISIBILITY
$$



USA.gov is the U.S. government's official web portal to all federal, state and local government web resources and services.